TimePST,TemperatureF,Dew PointF,Humidity,Sea Level PressureIn,VisibilityMPH,Wind Direction,Wind SpeedMPH,Gust SpeedMPH,PrecipitationIn,Events,Conditions,WindDirDegrees,DateUTC
12:52 AM,27.0,5.0,39,30.27,10.0,Calm,Calm,-,N/A,,Clear,0,2013-01-05 08:52:00
1:52 AM,28.9,5.0,36,30.28,10.0,Calm,Calm,-,N/A,,Clear,0,2013-01-05 09:52:00
2:52 AM,26.1,6.1,43,30.29,10.0,Calm,Calm,-,N/A,,Clear,0,2013-01-05 10:52:00
3:52 AM,24.1,6.1,46,30.29,10.0,Calm,Calm,-,N/A,,Clear,0,2013-01-05 11:52:00
4:52 AM,25.0,6.1,45,30.30,10.0,Calm,Calm,-,N/A,,Clear,0,2013-01-05 12:52:00
6:52 AM,26.1,6.1,43,30.35,10.0,Calm,Calm,-,N/A,,Clear,0,2013-01-05 14:52:00
7:52 AM,30.9,7.0,37,30.35,10.0,Calm,Calm,-,N/A,,Clear,0,2013-01-05 15:52:00
8:52 AM,37.0,7.0,29,30.36,10.0,Calm,Calm,-,N/A,,Clear,0,2013-01-05 16:52:00
9:52 AM,43.0,6.1,22,30.36,10.0,Calm,Calm,-,N/A,,Clear,0,2013-01-05 17:52:00
10:52 AM,48.0,5.0,17,30.32,10.0,NNE,3.5,-,N/A,,Clear,20,2013-01-05 18:52:00
11:52 AM,48.9,5.0,17,30.27,10.0,SE,10.4,-,N/A,,Clear,140,2013-01-05 19:52:00
12:52 PM,50.0,3.0,15,30.24,10.0,SE,12.7,-,N/A,,Clear,140,2013-01-05 20:52:00
1:52 PM,50.0,1.9,14,30.22,10.0,SE,13.8,-,N/A,,Clear,130,2013-01-05 21:52:00
2:52 PM,48.9,3.0,15,30.22,10.0,SE,13.8,-,N/A,,Clear,130,2013-01-05 22:52:00
3:52 PM,46.9,3.9,17,30.21,10.0,ESE,12.7,-,N/A,,Clear,120,2013-01-05 23:52:00
4:52 PM,45.0,3.9,18,30.22,10.0,ESE,6.9,-,N/A,,Clear,120,2013-01-06 00:52:00
5:52 PM,42.1,8.1,25,30.21,10.0,SE,8.1,-,N/A,,Clear,140,2013-01-06 01:52:00
6:52 PM,39.9,9.0,28,30.22,10.0,East,6.9,-,N/A,,Clear,90,2013-01-06 02:52:00
7:52 PM,37.9,9.0,30,30.21,10.0,Variable,3.5,-,N/A,,Clear,0,2013-01-06 03:52:00
8:52 PM,37.0,8.1,30,30.19,10.0,East,8.1,-,N/A,,Clear,100,2013-01-06 04:52:00
9:52 PM,35.1,8.1,33,30.19,10.0,ENE,3.5,-,N/A,,Clear,60,2013-01-06 05:52:00
10:52 PM,36.0,8.1,31,30.15,10.0,ESE,5.8,-,N/A,,Clear,120,2013-01-06 06:52:00
11:52 PM,32.0,9.0,38,30.14,10.0,NNE,6.9,-,N/A,,Clear,30,2013-01-06 07:52:00